N1NSI Weather Reports


time (UTC)temp
C
wind
direction
speed
KPH
gust
KPH
rain 1hr
cm
rain 24hr
cm
rain mn
cm
humidity
%
barometer
mb
20210414112907 6 0 0.0 0.0 0.00 0.00 0.00 85 1018.4
20210414112424 6 0 0.0 0.0 0.00 0.00 0.00 85 1018.4
20210414110546 6 0 0.0 0.0 0.00 0.00 0.00 84 1018.4
20210414110301 6 0 0.0 0.0 0.00 0.00 0.00 83 1018.3
20210414110033 6 0 0.0 0.0 0.00 0.00 0.00 83 1018.3
20210414105417 6 0 0.0 0.0 0.00 0.00 0.00 83 1018.3
20210414104518 6 0 0.0 0.0 0.00 0.00 0.00 83 1018.1
20210414104023 7 0 0.0 0.0 0.00 0.00 0.00 83 1018.1
20210414103518 7 0 0.0 0.0 0.00 0.00 0.00 82 1018.1
20210414103023 7 0 0.0 0.0 0.00 0.00 0.00 82 1018.1
20210414102824 7 0 0.0 0.0 0.00 0.00 0.00 82 1018.0
20210414102343 7 0 0.0 0.0 0.00 0.00 0.00 82 1018.0
20210414101510 7 0 0.0 0.0 0.00 0.00 0.00 83 1018.0
20210414101019 7 0 0.0 0.0 0.00 0.00 0.00 82 1018.0
20210414100522 7 0 0.0 0.0 0.00 0.00 0.00 81 1018.0
20210414100021 7 0 0.0 0.0 0.00 0.00 0.00 81 1017.9
20210414095836 7 0 0.0 0.0 0.00 0.00 0.00 81 1017.9
20210414095147 7 0 0.0 0.0 0.00 0.00 0.00 81 1017.9
20210414094516 7 0 0.0 0.0 0.00 0.00 0.00 81 1017.9
20210414093020 7 0 0.0 0.0 0.00 0.00 0.00 80 1017.8
20210414092837 7 0 0.0 0.0 0.00 0.00 0.00 80 1017.8
20210414092308 7 0 0.0 0.0 0.00 0.00 0.00 80 1017.8
20210414091516 7 0 0.0 0.0 0.00 0.00 0.00 80 1017.7
20210414091026 7 0 0.0 0.0 0.00 0.00 0.00 80 1017.7
20210414090518 7 0 0.0 0.0 0.00 0.00 0.00 80 1017.8
20210414090030 8 0 0.0 0.0 0.00 0.00 0.00 80 1017.7
20210414085809 8 0 0.0 0.0 0.00 0.00 0.00 79 1017.7
20210414085044 8 86 0.0 1.6 0.00 0.00 0.00 79 1017.7
20210414084516 8 86 0.0 1.6 0.00 0.00 0.00 79 1017.7
20210414084034 8 86 0.0 1.6 0.00 0.00 0.00 79 1017.6
20210414083525 8 86 0.0 1.6 0.00 0.00 0.00 79 1017.6
20210414083039 8 0 0.0 0.0 0.00 0.00 0.00 79 1017.6
20210414082738 8 0 0.0 0.0 0.00 0.00 0.00 79 1017.6
20210414082221 8 0 0.0 0.0 0.00 0.00 0.00 78 1017.6
20210414081524 8 0 0.0 0.0 0.00 0.00 0.00 78 1017.6
20210414081022 8 86 0.0 1.6 0.00 0.00 0.00 78 1017.6
20210414080518 8 86 0.0 3.2 0.00 0.00 0.00 78 1017.6
20210414080055 8 86 0.0 3.2 0.00 0.00 0.00 77 1017.6
20210414075732 8 86 0.0 3.2 0.00 0.00 0.00 77 1017.5
20210414075244 8 85 0.0 3.2 0.00 0.00 0.00 77 1017.5
20210414074517 8 85 0.0 1.6 0.00 0.00 0.00 77 1017.5
20210414074032 8 0 0.0 0.0 0.00 0.00 0.00 76 1017.4
20210414073516 8 0 0.0 0.0 0.00 0.00 0.00 76 1017.4
20210414073021 8 0 0.0 0.0 0.00 0.00 0.00 76 1017.4
20210414072829 8 0 0.0 0.0 0.00 0.00 0.00 76 1017.2
20210414072251 9 85 0.0 3.2 0.00 0.00 0.00 76 1017.2
20210414071519 9 83 1.6 11.3 0.00 0.00 0.00 76 1017.2
20210414071020 9 86 1.6 11.3 0.00 0.00 0.00 76 1017.2
20210414070514 9 91 1.6 11.3 0.00 0.00 0.00 76 1017.2
20210414070110 9 95 1.6 3.2 0.00 0.00 0.00 75 1017.1
20210414065857 9 92 1.6 9.7 0.00 0.00 0.00 75 1017.1
20210414065448 10 92 1.6 9.7 0.00 0.00 0.00 75 1017.1
20210414064521 10 101 1.6 9.7 0.00 0.00 0.00 75 1017.1
20210414064023 10 108 1.6 3.2 0.00 0.00 0.00 75 1017.0
20210414063512 10 102 1.6 6.4 0.00 0.00 0.00 75 1017.0
20210414063030 10 90 1.6 11.3 0.00 0.00 0.00 75 1017.0
20210414062752 10 85 1.6 11.3 0.00 0.00 0.00 74 1016.8
20210414062150 10 81 1.6 9.7 0.00 0.00 0.00 75 1016.8
20210414061513 10 89 3.2 12.9 0.00 0.00 0.00 75 1016.6
20210414061021 10 96 1.6 12.9 0.00 0.00 0.00 75 1016.6
20210414060513 10 102 1.6 9.7 0.00 0.00 0.00 76 1016.6
20210414060151 10 97 1.6 9.7 0.00 0.00 0.00 76 1016.6
20210414055931 10 83 0.0 3.2 0.00 0.00 0.00 79 1016.5
20210414055148 10 0 0.0 0.0 0.00 0.00 0.00 80 1016.5
20210414054524 10 0 0.0 0.0 0.00 0.00 0.00 80 1016.5
20210414054026 10 0 0.0 0.0 0.00 0.00 0.00 80 1016.4
20210414053513 10 0 0.0 0.0 0.00 0.00 0.00 80 1016.4
20210414053028 10 0 0.0 0.0 0.00 0.00 0.00 81 1016.4
20210414052831 10 0 0.0 0.0 0.00 0.00 0.00 81 1016.4
20210414052335 10 0 0.0 0.0 0.00 0.00 0.00 81 1016.4
20210414051516 10 0 0.0 0.0 0.00 0.00 0.00 81 1016.4
20210414051020 10 0 0.0 0.0 0.00 0.00 0.00 81 1016.4
20210414050512 10 0 0.0 0.0 0.00 0.00 0.00 81 1016.4
20210414050226 10 0 0.0 0.0 0.00 0.00 0.00 80 1016.3
20210414050041 10 0 0.0 0.0 0.00 0.00 0.00 81 1016.2
20210414045530 10 0 0.0 0.0 0.00 0.00 0.00 80 1016.2
20210414044513 10 0 0.0 0.0 0.00 0.00 0.00 81 1016.2
20210414044022 10 0 0.0 0.0 0.00 0.00 0.00 79 1016.1
20210414043513 10 0 0.0 0.0 0.00 0.00 0.00 79 1016.1
20210414043047 10 0 0.0 0.0 0.00 0.00 0.00 78 1016.1
20210414042850 10 0 0.0 0.0 0.00 0.00 0.00 77 1016.1
20210414042244 10 0 0.0 0.0 0.00 0.00 0.00 77 1016.1
20210414041523 10 0 0.0 0.0 0.00 0.00 0.00 77 1016.1
20210414041033 10 0 0.0 0.0 0.00 0.00 0.00 76 1016.2
20210414040637 10 0 0.0 0.0 0.00 0.00 0.00 76 1016.2
20210414040247 10 0 0.0 0.0 0.00 0.00 0.00 75 1016.1
20210414035958 10 0 0.0 0.0 0.00 0.00 0.00 74 1016.1
20210414035316 11 0 0.0 0.0 0.00 0.00 0.00 74 1016.1
20210414034529 11 0 0.0 0.0 0.00 0.00 0.00 73 1016.0
20210414034023 11 0 0.0 0.0 0.00 0.00 0.00 72 1016.0
20210414033546 11 0 0.0 0.0 0.00 0.00 0.00 72 1016.0
20210414033343 11 0 0.0 0.0 0.00 0.00 0.00 72 1016.0
20210414033109 11 0 0.0 0.0 0.00 0.00 0.00 71 1016.0
20210414032513 11 0 0.0 0.0 0.00 0.00 0.00 70 1016.0
20210414031520 11 0 0.0 0.0 0.00 0.00 0.00 70 1016.0
20210414031027 12 0 0.0 0.0 0.00 0.00 0.00 70 1016.0
20210414030533 12 0 0.0 0.0 0.00 0.00 0.00 69 1016.0
20210414030053 12 0 0.0 0.0 0.00 0.00 0.00 69 1015.9
20210414025920 12 0 0.0 0.0 0.00 0.00 0.00 68 1015.9
20210414025412 12 0 0.0 0.0 0.00 0.00 0.00 68 1015.9
20210414024527 12 0 0.0 0.0 0.00 0.00 0.00 68 1015.9
20210414024025 12 0 0.0 0.0 0.00 0.00 0.00 68 1015.9
20210414023517 13 0 0.0 0.0 0.00 0.00 0.00 67 1016.0
20210414023108 13 0 0.0 0.0 0.00 0.00 0.00 66 1016.0
20210414022906 13 0 0.0 0.0 0.00 0.00 0.00 66 1016.0
20210414022349 13 0 0.0 0.0 0.00 0.00 0.00 67 1016.0
20210414021523 13 0 0.0 0.0 0.00 0.00 0.00 67 1016.0
20210414021042 13 0 0.0 0.0 0.00 0.00 0.00 66 1016.0
20210414020518 13 0 0.0 0.0 0.00 0.00 0.00 66 1016.0
20210414015944 13 0 0.0 0.0 0.00 0.00 0.00 66 1015.9
20210414015340 13 0 0.0 0.0 0.00 0.00 0.00 65 1015.9
20210414014522 13 0 0.0 0.0 0.00 0.00 0.00 66 1016.0
20210414014027 13 0 0.0 0.0 0.00 0.00 0.00 65 1016.0
20210414013510 13 0 0.0 0.0 0.00 0.00 0.00 65 1016.0
20210414012932 13 0 0.0 0.0 0.00 0.00 0.00 65 1016.2
20210414012156 13 0 0.0 0.0 0.00 0.00 0.00 64 1016.2
20210414011511 13 0 0.0 0.0 0.00 0.00 0.00 64 1016.3
20210414011037 13 0 0.0 0.0 0.00 0.00 0.00 64 1016.3
20210414010513 13 102 0.0 1.6 0.00 0.00 0.00 65 1016.3
20210414010224 13 102 0.0 3.2 0.00 0.00 0.00 65 1016.0
20210414005742 13 0 0.0 0.0 0.00 0.00 0.00 66 1016.0
20210414004522 14 0 0.0 0.0 0.00 0.00 0.00 65 1016.0
20210414004021 14 0 0.0 0.0 0.00 0.00 0.00 65 1016.0
20210414003520 14 0 0.0 0.0 0.00 0.00 0.00 65 1016.0
20210414002230 15 0 0.0 0.0 0.00 0.00 0.00 63 1015.9
20210414001526 15 0 0.0 0.0 0.00 0.00 0.00 63 1015.9
20210414001032 15 0 0.0 0.0 0.00 0.00 0.00 62 1015.9
20210414000527 15 0 0.0 0.0 0.00 0.00 0.00 61 1015.9
20210414000032 15 0 0.0 0.0 0.00 0.00 0.00 61 1015.8
20210413235649 16 0 0.0 0.0 0.00 0.00 0.00 59 1015.7
20210413234520 16 0 0.0 0.0 0.00 0.00 0.00 59 1015.7
20210413234023 16 0 0.0 0.0 0.00 0.00 0.00 58 1015.6
20210413233523 16 0 0.0 0.0 0.00 0.00 0.00 57 1015.6
20210413233000 16 0 0.0 0.0 0.00 0.00 0.00 57 1015.6
20210413232328 16 0 0.0 0.0 0.00 0.00 0.00 56 1015.6
20210413231517 16 0 0.0 0.0 0.00 0.00 0.00 56 1015.6
20210413231018 17 0 0.0 0.0 0.00 0.00 0.00 55 1015.5
20210413230512 17 0 0.0 0.0 0.00 0.00 0.00 54 1015.5
20210413230246 17 0 0.0 0.0 0.00 0.00 0.00 53 1015.4
20210413225949 17 0 0.0 0.0 0.00 0.00 0.00 53 1015.5
20210413225606 17 0 0.0 0.0 0.00 0.00 0.00 51 1015.5
20210413224552 17 0 0.0 0.0 0.00 0.00 0.00 51 1015.5
20210413224032 17 0 0.0 0.0 0.00 0.00 0.00 50 1015.4
20210413223530 17 0 0.0 0.0 0.00 0.00 0.00 48 1015.4
20210413223103 17 0 0.0 0.0 0.00 0.00 0.00 48 1015.4
20210413222943 18 0 0.0 0.0 0.00 0.00 0.00 48 1015.4
20210413222425 18 0 0.0 0.0 0.00 0.00 0.00 48 1015.4
20210413221519 18 0 0.0 0.0 0.00 0.00 0.00 47 1015.4
20210413221040 18 100 0.0 1.6 0.00 0.00 0.00 47 1015.4
20210413220530 18 100 0.0 1.6 0.00 0.00 0.00 47 1015.4
20210413220238 18 100 0.0 1.6 0.00 0.00 0.00 47 1015.4
20210413220057 18 99 0.0 3.2 0.00 0.00 0.00 47 1015.3
20210413215433 18 99 0.0 3.2 0.00 0.00 0.00 46 1015.3
20210413214522 18 100 0.0 1.6 0.00 0.00 0.00 46 1015.4
20210413213056 18 125 0.0 6.4 0.00 0.00 0.00 45 1015.4
20210413212911 18 125 1.6 6.4 0.00 0.00 0.00 45 1015.3
20210413212345 18 123 1.6 6.4 0.00 0.00 0.00 46 1015.3
20210413211023 18 116 1.6 6.4 0.00 0.00 0.00 45 1015.3
20210413210521 18 124 1.6 6.4 0.00 0.00 0.00 45 1015.3
20210413210040 18 125 1.6 6.4 0.00 0.00 0.00 45 1015.3
20210413205818 18 109 1.6 6.4 0.00 0.00 0.00 45 1015.3
20210413205215 18 86 3.2 11.3 0.00 0.00 0.00 45 1015.3
20210413204520 18 81 3.2 11.3 0.00 0.00 0.00 45 1015.3
20210413204026 18 105 1.6 6.4 0.00 0.00 0.00 45 1015.3
20210413203744 18 125 0.0 6.4 0.00 0.00 0.00 45 1015.3
20210413203121 18 101 1.6 9.7 0.00 0.00 0.00 46 1015.3
20210413202920 18 112 1.6 9.7 0.00 0.00 0.00 47 1015.4
20210413202225 18 111 1.6 9.7 0.00 0.00 0.00 47 1015.4
20210413201523 18 44 1.6 6.4 0.00 0.00 0.00 47 1015.4
20210413201021 18 28 1.6 6.4 0.00 0.00 0.00 47 1015.4
20210413200528 18 23 1.6 3.2 0.00 0.00 0.00 46 1015.4
20210413200241 18 45 0.0 3.2 0.00 0.00 0.00 46 1015.4
20210413200045 18 90 0.0 3.2 0.00 0.00 0.00 45 1015.4
20210413195124 18 90 0.0 3.2 0.00 0.00 0.00 45 1015.4
20210413194516 18 104 1.6 9.7 0.00 0.00 0.00 45 1015.4
20210413194030 19 107 1.6 9.7 0.00 0.00 0.00 46 1015.4
20210413193520 19 112 1.6 6.4 0.00 0.00 0.00 44 1015.4
20210413193140 19 113 1.6 6.4 0.00 0.00 0.00 46 1015.4
20210413192928 19 98 1.6 9.7 0.00 0.00 0.00 44 1015.4
20210413192437 19 94 1.6 9.7 0.00 0.00 0.00 46 1015.4
20210413191523 18 98 1.6 11.3 0.00 0.00 0.00 46 1015.4
20210413191020 18 96 1.6 11.3 0.00 0.00 0.00 46 1015.4
20210413190532 19 72 1.6 6.4 0.00 0.00 0.00 45 1015.4
20210413190112 19 18 1.6 6.4 0.00 0.00 0.00 45 1015.4
20210413185902 19 28 1.6 6.4 0.00 0.00 0.00 44 1015.4
20210413185221 19 132 0.0 6.4 0.00 0.00 0.00 44 1015.4
20210413184520 19 133 3.2 9.7 0.00 0.00 0.00 43 1015.5
20210413184021 19 119 4.8 11.3 0.00 0.00 0.00 45 1015.5
20210413183523 19 101 3.2 11.3 0.00 0.00 0.00 47 1015.5
20210413183028 18 47 0.0 6.4 0.00 0.00 0.00 47 1015.5
20210413182847 18 354 1.6 6.4 0.00 0.00 0.00 45 1015.8
20210413182136 18 348 1.6 6.4 0.00 0.00 0.00 45 1015.8
20210413181519 18 358 1.6 6.4 0.00 0.00 0.00 46 1015.8
20210413181032 18 40 1.6 6.4 0.00 0.00 0.00 46 1015.9
20210413180512 19 59 1.6 9.7 0.00 0.00 0.00 45 1015.9
20210413180020 18 96 3.2 11.3 0.00 0.00 0.00 45 1015.9
20210413175745 18 120 1.6 11.3 0.00 0.00 0.00 46 1016.0
20210413175131 18 124 1.6 9.7 0.00 0.00 0.00 48 1016.0
20210413174517 18 126 1.6 6.4 0.00 0.00 0.00 48 1016.0
20210413174020 17 96 1.6 6.4 0.00 0.00 0.00 49 1016.3
20210413173511 17 39 0.0 6.4 0.00 0.00 0.00 51 1016.3
20210413173043 16 37 0.0 6.4 0.00 0.00 0.00 51 1016.3
20210413172908 16 61 1.6 6.4 0.00 0.00 0.00 51 1016.4
20210413172346 16 101 0.0 3.2 0.00 0.00 0.00 52 1016.4
20210413171513 16 131 1.6 6.4 0.00 0.00 0.00 52 1016.4
20210413171022 16 135 1.6 6.4 0.00 0.00 0.00 53 1016.5
20210413170518 16 123 0.0 3.2 0.00 0.00 0.00 54 1016.5
20210413170121 16 113 0.0 3.2 0.00 0.00 0.00 52 1016.5
20210413165858 16 101 0.0 3.2 0.00 0.00 0.00 52 1016.5
20210413165241 15 81 0.0 6.4 0.00 0.00 0.00 54 1016.5
20210413164517 15 64 0.0 6.4 0.00 0.00 0.00 54 1016.5
20210413164033 15 55 0.0 3.2 0.00 0.00 0.00 54 1016.5
20210413163509 15 102 1.6 9.7 0.00 0.00 0.00 53 1016.5
20210413163214 15 357 1.6 9.7 0.00 0.00 0.00 54 1016.5
20210413163016 15 335 1.6 9.7 0.00 0.00 0.00 54 1016.5
20210413162639 15 23 1.6 6.4 0.00 0.00 0.00 53 1016.5
20210413161513 15 23 1.6 6.4 0.00 0.00 0.00 53 1016.5
20210413161022 15 51 1.6 9.7 0.00 0.00 0.00 53 1016.6
20210413160530 15 77 1.6 9.7 0.00 0.00 0.00 53 1016.6
20210413160208 15 83 0.0 6.4 0.00 0.00 0.00 53 1016.6
20210413155953 15 83 0.0 6.4 0.00 0.00 0.00 55 1016.8
20210413155519 15 108 1.6 14.5 0.00 0.00 0.00 55 1016.8
20210413154521 15 107 3.2 14.5 0.00 0.00 0.00 55 1016.8
20210413154018 15 104 3.2 11.3 0.00 0.00 0.00 56 1016.8
20210413153512 15 108 3.2 11.3 0.00 0.00 0.00 57 1016.8
20210413153117 14 92 3.2 12.9 0.00 0.00 0.00 58 1016.8
20210413152925 14 83 3.2 14.5 0.00 0.00 0.00 59 1016.7
20210413152448 13 85 1.6 14.5 0.00 0.00 0.00 58 1016.7
20210413151525 13 46 0.0 3.2 0.00 0.00 0.00 58 1016.7
20210413151021 13 35 1.6 3.2 0.00 0.00 0.00 57 1016.8
20210413150616 13 28 0.0 3.2 0.00 0.00 0.00 60 1016.8
20210413150242 13 45 0.0 3.2 0.00 0.00 0.00 59 1016.9
20210413145707 13 62 0.0 3.2 0.00 0.00 0.00 61 1016.9
20210413144031 12 93 1.6 9.7 0.00 0.00 0.00 62 1016.9
20210413143143 12 50 3.2 11.3 0.00 0.00 0.00 63 1016.9
20210413143032 12 349 1.6 6.4 0.00 0.00 0.00 63 1016.9
20210413142158 12 350 1.6 9.7 0.00 0.00 0.00 64 1016.9
20210413141028 11 46 1.6 6.4 0.00 0.00 0.00 67 1016.9
20210413140511 11 30 1.6 9.7 0.00 0.00 0.00 68 1016.9
20210413140131 11 21 1.6 9.7 0.00 0.00 0.00 69 1016.9
20210413140035 10 23 1.6 6.4 0.00 0.00 0.00 70 1017.0
20210413135519 10 33 1.6 6.4 0.00 0.00 0.00 72 1017.0
20210413134028 9 81 1.6 11.3 0.00 0.00 0.00 81 1017.0
20210413133523 8 94 3.2 11.3 0.00 0.00 0.00 85 1017.0
20210413132932 7 101 1.6 11.3 0.00 0.00 0.00 92 1016.9
20210413132234 7 55 1.6 6.4 0.00 0.00 0.00 96 1016.9
20210413131026 6 0 0.0 0.0 0.00 0.00 0.00 100 1016.9
20210413130102 5 0 0.0 0.0 0.00 0.00 0.00 100 1016.9
20210413125846 5 0 0.0 0.0 0.00 0.00 0.00 100 1016.9
20210413124547 5 0 0.0 0.0 0.00 0.00 0.00 100 1017.0
20210413122920 3 0 0.0 0.0 0.00 0.00 0.00 100 1016.9
20210413121030 3 0 0.0 0.0 0.00 0.00 0.00 100 1016.8
20210413120532 3 0 0.0 0.0 0.00 0.00 0.00 100 1016.8
20210413115915 2 0 0.0 0.0 0.00 0.00 0.00 98 1016.8
20210413114522 2 0 0.0 0.0 0.00 0.00 0.00 98 1016.8